NKS67 KFLL-TJPS

Flight info

Callsign NKS67
Flight time 2h 13m
Altitude 37000
Route N0437F370 SNAPR2 SUMAC Y421 MEEGL
Aircraft A319/M-SDFGHIRWXYZ/LB1

Departure

Time 2026-05-03 20:49
Airport Fort Lauderdale Hollywood International Airport (KFLL)

Arrival

Time 2026-05-03 23:02
Airport Mercedita International Airport (TJPS)
Time Latitude Longitude Altitude Speed Heading
2026-05-03 20:15 26.06878 -80.14427 13 ft 0 kts
2026-05-03 20:23 26.06872 -80.14427 13 ft 2 kts
2026-05-03 20:24 26.06857 -80.14427 13 ft 2 kts
2026-05-03 20:24 26.06842 -80.14427 13 ft 2 kts 360°
2026-05-03 20:24 26.06829 -80.14427 13 ft 0 kts
2026-05-03 20:24 26.06818 -80.14426 13 ft 2 kts 348°
2026-05-03 20:25 26.06803 -80.14421 13 ft 2 kts 331°
2026-05-03 20:25 26.06791 -80.14411 13 ft 2 kts 314°
2026-05-03 20:25 26.06782 -80.14398 13 ft 2 kts 297°
2026-05-03 20:25 26.06777 -80.14382 13 ft 2 kts 279°
2026-05-03 20:26 26.06776 -80.14376 13 ft 0 kts 274°
2026-05-03 20:27 26.06778 -80.14395 13 ft 8 kts 274°
2026-05-03 20:27 26.06793 -80.14481 13 ft 11 kts 284°
2026-05-03 20:28 26.06794 -80.14562 13 ft 10 kts 238°
2026-05-03 20:28 26.06768 -80.14638 13 ft 10 kts 266°
2026-05-03 20:28 26.06766 -80.14721 13 ft 10 kts 270°
2026-05-03 20:28 26.06766 -80.14803 13 ft 10 kts 270°
2026-05-03 20:29 26.06765 -80.14885 13 ft 10 kts 270°
2026-05-03 20:29 26.06765 -80.14964 13 ft 8 kts 271°
2026-05-03 20:29 26.06767 -80.15032 13 ft 9 kts 271°
2026-05-03 20:29 26.06767 -80.15104 13 ft 8 kts 257°
2026-05-03 20:30 26.06715 -80.15138 13 ft 8 kts 221°
2026-05-03 20:30 26.06696 -80.15200 13 ft 8 kts 268°
2026-05-03 20:30 26.06695 -80.15269 12 ft 8 kts 270°
2026-05-03 20:30 26.06696 -80.15338 12 ft 9 kts 271°
2026-05-03 20:31 26.06696 -80.15411 12 ft 9 kts 270°
2026-05-03 20:31 26.06697 -80.15485 12 ft 9 kts 269°
2026-05-03 20:31 26.06697 -80.15559 12 ft 9 kts 270°
2026-05-03 20:31 26.06697 -80.15620 12 ft 3 kts 271°
2026-05-03 20:32 26.06697 -80.15621 12 ft 0 kts 271°
2026-05-03 20:32 26.06697 -80.15623 12 ft 0 kts 270°
2026-05-03 20:32 26.06697 -80.15627 12 ft 0 kts 271°
2026-05-03 20:32 26.06698 -80.15649 12 ft 4 kts 271°
2026-05-03 20:33 26.06698 -80.15682 12 ft 4 kts 271°
2026-05-03 20:33 26.06698 -80.15701 12 ft 0 kts 270°
2026-05-03 20:34 26.06698 -80.15708 12 ft 1 kts 270°
2026-05-03 20:35 26.06699 -80.15731 12 ft 3 kts 270°
2026-05-03 20:35 26.06699 -80.15751 12 ft 0 kts 271°
2026-05-03 20:37 26.06699 -80.15752 12 ft 0 kts 271°
2026-05-03 20:37 26.06699 -80.15757 12 ft 0 kts 271°
2026-05-03 20:43 26.06699 -80.15758 12 ft 0 kts 271°
2026-05-03 20:43 26.06699 -80.15759 12 ft 0 kts 271°
2026-05-03 20:44 26.06699 -80.15761 12 ft 0 kts 271°
2026-05-03 20:44 26.06699 -80.15776 12 ft 2 kts 271°
2026-05-03 20:44 26.06696 -80.15805 12 ft 4 kts 248°
2026-05-03 20:45 26.06683 -80.15817 12 ft 0 kts 186°
2026-05-03 20:45 26.06679 -80.15818 12 ft 0 kts 195°
2026-05-03 20:48 26.06678 -80.15819 12 ft 1 kts 195°
2026-05-03 20:48 26.06627 -80.15816 12 ft 9 kts 179°
2026-05-03 20:48 26.06590 -80.15766 12 ft 10 kts 86°
2026-05-03 20:49 26.06589 -80.15601 12 ft 52 kts 92°
2026-05-03 20:49 26.06585 -80.14888 13 ft 130 kts 90°
2026-05-03 20:49 26.06570 -80.13695 330 ft 165 kts 89°
2026-05-03 20:49 26.06553 -80.12439 1188 ft 163 kts 88°
2026-05-03 20:50 26.06562 -80.11240 2002 ft 152 kts 86°
2026-05-03 20:50 26.06586 -80.10085 2644 ft 149 kts 87°
2026-05-03 20:50 26.06612 -80.08929 3186 ft 151 kts 88°
2026-05-03 20:50 26.06634 -80.07729 3603 ft 164 kts 88°
2026-05-03 20:51 26.06657 -80.06389 3942 ft 185 kts 89°
2026-05-03 20:51 26.06681 -80.04801 3993 ft 226 kts 89°
2026-05-03 20:51 26.06704 -80.02889 3978 ft 266 kts 89°
2026-05-03 20:51 26.06729 -80.00797 3980 ft 273 kts 89°
2026-05-03 20:52 26.06724 -79.98671 3982 ft 275 kts 90°
2026-05-03 20:52 26.06700 -79.96526 3980 ft 275 kts 90°
2026-05-03 20:52 26.06674 -79.94359 3982 ft 275 kts 90°
2026-05-03 20:52 26.06649 -79.92200 3982 ft 276 kts 90°
2026-05-03 20:53 26.06627 -79.90083 3981 ft 275 kts 90°
2026-05-03 20:53 26.06606 -79.87941 4219 ft 275 kts 90°
2026-05-03 20:53 26.06586 -79.85807 4980 ft 279 kts 91°
2026-05-03 20:53 26.06531 -79.83634 5805 ft 286 kts 95°
2026-05-03 20:54 26.06308 -79.81420 6624 ft 293 kts 100°
2026-05-03 20:54 26.05608 -79.76918 8300 ft 302 kts 101°
2026-05-03 20:54 26.05240 -79.74612 9086 ft 307 kts 101°
2026-05-03 20:55 26.04874 -79.72293 9832 ft 311 kts 101°
2026-05-03 20:55 26.04496 -79.69882 10519 ft 318 kts 101°
2026-05-03 20:55 26.04109 -79.67409 10860 ft 332 kts 101°
2026-05-03 20:55 26.03693 -79.64891 11096 ft 337 kts 104°
2026-05-03 20:56 26.03140 -79.62351 11332 ft 337 kts 106°
2026-05-03 20:56 26.02545 -79.59808 11585 ft 341 kts 107°
2026-05-03 20:56 26.01942 -79.57261 12158 ft 346 kts 107°
2026-05-03 20:56 26.01328 -79.54662 12912 ft 347 kts 107°
2026-05-03 20:57 26.00715 -79.52056 13566 ft 351 kts 107°
2026-05-03 20:57 26.00094 -79.49423 14188 ft 355 kts 107°
2026-05-03 20:57 25.99465 -79.46758 14775 ft 360 kts 107°
2026-05-03 20:57 25.98835 -79.44086 15352 ft 364 kts 107°
2026-05-03 20:58 25.98189 -79.41343 15892 ft 370 kts 107°
2026-05-03 20:58 25.97488 -79.38567 16448 ft 374 kts 110°
2026-05-03 20:58 25.96625 -79.35843 16972 ft 378 kts 114°
2026-05-03 20:58 25.95674 -79.33096 17497 ft 382 kts 114°
2026-05-03 20:59 25.94707 -79.30334 18012 ft 386 kts 115°
2026-05-03 20:59 25.93724 -79.27531 18519 ft 391 kts 115°
2026-05-03 20:59 25.92734 -79.24703 19039 ft 394 kts 115°
2026-05-03 20:59 25.91729 -79.21827 19573 ft 397 kts 115°
2026-05-03 21:00 25.90734 -79.18973 20062 ft 401 kts 115°
2026-05-03 21:00 25.90067 -79.17062 20386 ft 403 kts 115°
2026-05-03 21:00 25.88710 -79.13175 21036 ft 408 kts 115°
2026-05-03 21:00 25.87680 -79.10226 21495 ft 411 kts 115°
2026-05-03 21:01 25.86644 -79.07265 21973 ft 414 kts 115°
2026-05-03 21:01 25.85592 -79.04256 22437 ft 417 kts 115°
2026-05-03 21:01 25.84540 -79.01251 22862 ft 421 kts 115°
2026-05-03 21:01 25.83477 -78.98216 23313 ft 424 kts 116°
2026-05-03 21:02 25.82408 -78.95167 23760 ft 426 kts 116°
2026-05-03 21:02 25.81330 -78.92094 24202 ft 429 kts 116°
2026-05-03 21:02 25.80251 -78.89020 24628 ft 432 kts 116°
2026-05-03 21:02 25.79168 -78.85934 25039 ft 435 kts 116°
2026-05-03 21:03 25.78067 -78.82806 25452 ft 438 kts 116°
2026-05-03 21:03 25.76946 -78.79623 25873 ft 440 kts 117°
2026-05-03 21:03 25.75842 -78.76489 26280 ft 443 kts 117°
2026-05-03 21:03 25.74647 -78.73334 26671 ft 443 kts 121°
2026-05-03 21:04 25.73230 -78.70297 27113 ft 440 kts 127°
2026-05-03 21:04 25.71628 -78.67467 27523 ft 438 kts 131°
2026-05-03 21:04 25.69915 -78.64677 27909 ft 440 kts 131°
2026-05-03 21:04 25.68164 -78.61863 28296 ft 442 kts 131°
2026-05-03 21:05 25.66434 -78.59071 28679 ft 444 kts 131°
2026-05-03 21:05 25.64682 -78.56234 29022 ft 447 kts 131°
2026-05-03 21:05 25.62927 -78.53383 29391 ft 449 kts 131°
2026-05-03 21:05 25.61160 -78.50497 29734 ft 453 kts 130°
2026-05-03 21:06 25.59512 -78.47517 30051 ft 460 kts 126°
2026-05-03 21:06 25.58051 -78.44373 30388 ft 466 kts 121°
2026-05-03 21:06 25.56785 -78.41029 30690 ft 473 kts 115°
2026-05-03 21:06 25.55748 -78.37534 30986 ft 479 kts 111°
2026-05-03 21:07 25.54836 -78.33975 31341 ft 481 kts 110°
2026-05-03 21:07 25.53954 -78.30435 31748 ft 480 kts 110°
2026-05-03 21:07 25.53062 -78.26860 32164 ft 479 kts 110°
2026-05-03 21:07 25.52175 -78.23337 32562 ft 478 kts 110°
2026-05-03 21:08 25.51265 -78.19762 32909 ft 478 kts 110°
2026-05-03 21:08 25.50363 -78.16238 33239 ft 479 kts 110°
2026-05-03 21:08 25.49456 -78.12700 33603 ft 479 kts 111°
2026-05-03 21:08 25.48550 -78.09165 34006 ft 478 kts 111°
2026-05-03 21:09 25.47641 -78.05637 34380 ft 478 kts 110°
2026-05-03 21:09 25.46723 -78.02083 34725 ft 478 kts 110°
2026-05-03 21:09 25.45819 -77.98586 35063 ft 478 kts 110°
2026-05-03 21:09 25.44901 -77.95034 35409 ft 477 kts 110°
2026-05-03 21:10 25.43992 -77.91519 35704 ft 478 kts 110°
2026-05-03 21:10 25.43084 -77.88014 35939 ft 479 kts 110°
2026-05-03 21:10 25.42157 -77.84441 36184 ft 480 kts 110°
2026-05-03 21:10 25.41243 -77.80924 36391 ft 482 kts 110°
2026-05-03 21:11 25.40314 -77.77351 36599 ft 484 kts 110°
2026-05-03 21:11 25.39392 -77.73805 36808 ft 485 kts 110°
2026-05-03 21:11 25.38451 -77.70189 36988 ft 487 kts 110°
2026-05-03 21:11 25.37522 -77.66632 36995 ft 487 kts 110°
2026-05-03 21:12 25.35646 -77.59445 36996 ft 487 kts 110°
2026-05-03 21:12 25.33772 -77.52278 36999 ft 487 kts 110°
2026-05-03 21:13 25.31881 -77.45066 36998 ft 487 kts 110°
2026-05-03 21:13 25.29810 -77.38010 37001 ft 483 kts 116°
2026-05-03 21:14 25.26994 -77.31357 37002 ft 477 kts 124°
2026-05-03 21:14 25.23518 -77.25156 37005 ft 473 kts 129°
2026-05-03 21:15 25.19940 -77.19089 37005 ft 472 kts 129°
2026-05-03 21:15 25.16375 -77.13024 37004 ft 472 kts 128°
2026-05-03 21:16 25.12823 -77.06955 37003 ft 471 kts 128°
2026-05-03 21:16 25.09279 -77.00902 37003 ft 472 kts 128°
2026-05-03 21:17 25.06308 -76.95830 37003 ft 470 kts 128°
2026-05-03 21:17 25.02182 -76.88792 37004 ft 470 kts 128°
2026-05-03 21:18 24.98636 -76.82761 37002 ft 471 kts 128°
2026-05-03 21:18 24.95066 -76.76692 37004 ft 470 kts 128°
2026-05-03 21:19 24.91527 -76.70680 37000 ft 470 kts 128°
2026-05-03 21:19 24.87981 -76.64671 37000 ft 470 kts 128°
2026-05-03 21:20 24.84393 -76.58594 37000 ft 471 kts 128°
2026-05-03 21:20 24.80833 -76.52571 37004 ft 472 kts 128°
2026-05-03 21:21 24.77244 -76.46509 37002 ft 472 kts 128°
2026-05-03 21:21 24.73686 -76.40499 37002 ft 471 kts 128°
2026-05-03 21:22 24.70095 -76.34449 37001 ft 471 kts 128°
2026-05-03 21:22 24.66540 -76.28466 37003 ft 471 kts 128°
2026-05-03 21:23 24.62941 -76.22414 37005 ft 470 kts 128°
2026-05-03 21:23 24.59365 -76.16410 37003 ft 470 kts 128°
2026-05-03 21:24 24.55836 -76.10392 37003 ft 471 kts 126°
2026-05-03 21:24 24.52416 -76.04247 37003 ft 471 kts 126°
2026-05-03 21:25 24.48998 -75.98106 37005 ft 472 kts 126°
2026-05-03 21:25 24.45576 -75.91988 37008 ft 471 kts 126°
2026-05-03 21:26 24.42134 -75.85847 37007 ft 471 kts 126°
2026-05-03 21:26 24.38721 -75.79771 37010 ft 471 kts 126°
2026-05-03 21:27 24.35270 -75.73631 37008 ft 471 kts 126°
2026-05-03 21:27 24.31834 -75.67534 37009 ft 471 kts 126°
2026-05-03 21:28 24.28405 -75.61451 37010 ft 471 kts 125°
2026-05-03 21:28 24.24965 -75.55355 37010 ft 470 kts 126°
2026-05-03 21:29 24.21511 -75.49246 37004 ft 464 kts 126°
2026-05-03 21:29 24.19848 -75.46299 37000 ft 449 kts 126°
2026-05-03 21:29 24.18208 -75.43395 37007 ft 443 kts 126°
2026-05-03 21:30 24.14972 -75.37692 37010 ft 442 kts 126°
2026-05-03 21:30 24.11724 -75.31968 37006 ft 441 kts 126°
2026-05-03 21:31 24.08483 -75.26267 37010 ft 441 kts 126°
2026-05-03 21:31 24.05238 -75.20564 37007 ft 441 kts 126°
2026-05-03 21:32 24.01985 -75.14850 37006 ft 442 kts 126°
2026-05-03 21:32 23.98732 -75.09139 37006 ft 441 kts 126°
2026-05-03 21:33 23.95499 -75.03472 37004 ft 441 kts 126°
2026-05-03 21:33 23.92241 -74.97772 37007 ft 441 kts 126°
2026-05-03 21:34 23.88983 -74.92078 37006 ft 441 kts 126°
2026-05-03 21:34 23.85733 -74.86401 37012 ft 442 kts 126°
2026-05-03 21:35 23.82464 -74.80696 37018 ft 442 kts 126°
2026-05-03 21:35 23.79188 -74.74985 37024 ft 443 kts 126°
2026-05-03 21:36 23.75923 -74.69302 37021 ft 443 kts 126°
2026-05-03 21:36 23.72652 -74.63619 37022 ft 444 kts 126°
2026-05-03 21:37 23.69360 -74.57903 37021 ft 444 kts 126°
2026-05-03 21:37 23.66069 -74.52193 37018 ft 444 kts 126°
2026-05-03 21:38 23.62775 -74.46491 37021 ft 445 kts 126°
2026-05-03 21:38 23.59478 -74.40784 37021 ft 445 kts 126°
2026-05-03 21:39 23.56188 -74.35094 37023 ft 445 kts 126°
2026-05-03 21:39 23.52903 -74.29421 37023 ft 445 kts 126°
2026-05-03 21:40 23.49603 -74.23727 37022 ft 444 kts 126°
2026-05-03 21:40 23.46291 -74.18026 37022 ft 445 kts 126°
2026-05-03 21:41 23.43006 -74.12372 37025 ft 445 kts 126°
2026-05-03 21:41 23.39693 -74.06677 37024 ft 445 kts 126°
2026-05-03 21:42 23.36389 -74.01004 37026 ft 446 kts 126°
2026-05-03 21:42 23.33072 -73.95316 37023 ft 446 kts 126°
2026-05-03 21:43 23.29746 -73.89619 37029 ft 446 kts 126°
2026-05-03 21:43 23.26420 -73.83925 37022 ft 446 kts 126°
2026-05-03 21:44 23.23110 -73.78267 37025 ft 445 kts 126°
2026-05-03 21:44 23.19784 -73.72588 37023 ft 446 kts 126°
2026-05-03 21:45 23.16430 -73.66868 37026 ft 446 kts 126°
2026-05-03 21:45 23.13112 -73.61217 37027 ft 446 kts 126°
2026-05-03 21:46 23.09766 -73.55523 37025 ft 447 kts 125°
2026-05-03 21:46 23.06432 -73.49851 37023 ft 447 kts 125°
2026-05-03 21:47 23.03080 -73.44164 37021 ft 447 kts 125°
2026-05-03 21:47 22.99728 -73.38477 37022 ft 447 kts 126°
2026-05-03 21:48 22.96363 -73.32774 37023 ft 447 kts 126°
2026-05-03 21:48 22.93026 -73.27129 37025 ft 446 kts 126°
2026-05-03 21:49 22.89673 -73.21464 37019 ft 447 kts 126°
2026-05-03 21:49 22.86309 -73.15778 37019 ft 446 kts 126°
2026-05-03 21:50 22.82971 -73.10148 37024 ft 446 kts 126°
2026-05-03 21:50 22.79625 -73.04509 37017 ft 445 kts 125°
2026-05-03 21:51 22.76252 -72.98833 37022 ft 446 kts 125°
2026-05-03 21:51 22.72903 -72.93205 37022 ft 446 kts 125°
2026-05-03 21:52 22.69534 -72.87543 37015 ft 445 kts 125°
2026-05-03 21:52 22.66199 -72.81948 37023 ft 445 kts 125°
2026-05-03 21:53 22.62835 -72.76306 37028 ft 446 kts 125°
2026-05-03 21:53 22.59487 -72.70702 37029 ft 445 kts 125°
2026-05-03 21:54 22.56123 -72.65079 37028 ft 446 kts 125°
2026-05-03 21:54 22.52735 -72.59418 37030 ft 446 kts 125°
2026-05-03 21:55 22.49374 -72.53812 37032 ft 445 kts 125°
2026-05-03 21:55 22.46018 -72.48212 37031 ft 445 kts 125°
2026-05-03 21:56 22.42662 -72.42625 37033 ft 445 kts 125°
2026-05-03 21:56 22.39291 -72.37019 37031 ft 444 kts 124°
2026-05-03 21:57 22.35928 -72.31429 37031 ft 443 kts 125°
2026-05-03 21:57 22.32562 -72.25845 37031 ft 443 kts 125°
2026-05-03 21:58 22.29212 -72.20287 37032 ft 444 kts 125°
2026-05-03 21:58 22.25837 -72.14697 37032 ft 443 kts 125°
2026-05-03 21:59 22.22468 -72.09122 37033 ft 444 kts 125°
2026-05-03 21:59 22.19106 -72.03564 37031 ft 443 kts 125°
2026-05-03 22:00 22.15756 -71.98028 37028 ft 442 kts 125°
2026-05-03 22:00 22.12385 -71.92473 37026 ft 442 kts 125°
2026-05-03 22:01 22.09020 -71.86923 37029 ft 442 kts 125°
2026-05-03 22:01 22.05657 -71.81389 37026 ft 442 kts 124°
2026-05-03 22:02 22.02298 -71.75867 37026 ft 442 kts 124°
2026-05-03 22:02 21.98925 -71.70321 37025 ft 442 kts 124°
2026-05-03 22:03 21.95562 -71.64799 37025 ft 441 kts 125°
2026-05-03 22:03 21.92193 -71.59277 37025 ft 442 kts 125°
2026-05-03 22:04 21.88811 -71.53739 37021 ft 441 kts 124°
2026-05-03 22:04 21.85446 -71.48235 37019 ft 441 kts 124°
2026-05-03 22:05 21.82093 -71.42753 37023 ft 441 kts 124°
2026-05-03 22:05 21.78715 -71.37235 37017 ft 440 kts 124°
2026-05-03 22:06 21.75354 -71.31750 37019 ft 440 kts 125°
2026-05-03 22:06 21.71986 -71.26262 37011 ft 441 kts 125°
2026-05-03 22:07 21.68616 -71.20775 37006 ft 440 kts 125°
2026-05-03 22:07 21.65226 -71.15260 37005 ft 440 kts 125°
2026-05-03 22:08 21.61852 -71.09775 37005 ft 440 kts 124°
2026-05-03 22:08 21.58460 -71.04318 37004 ft 440 kts 127°
2026-05-03 22:09 21.54657 -70.99243 37005 ft 439 kts 133°
2026-05-03 22:10 21.48636 -70.91820 37008 ft 438 kts 133°
2026-05-03 22:10 21.44649 -70.86895 37005 ft 439 kts 133°
2026-05-03 22:11 21.40650 -70.81953 37007 ft 439 kts 133°
2026-05-03 22:11 21.36655 -70.77016 37010 ft 438 kts 132°
2026-05-03 22:12 21.32651 -70.72072 37015 ft 439 kts 133°
2026-05-03 22:12 21.28659 -70.67146 37014 ft 439 kts 133°
2026-05-03 22:13 21.24658 -70.62214 37014 ft 439 kts 132°
2026-05-03 22:13 21.20661 -70.57291 37014 ft 438 kts 132°
2026-05-03 22:14 21.16643 -70.52348 37017 ft 438 kts 132°
2026-05-03 22:14 21.12663 -70.47456 37018 ft 438 kts 132°
2026-05-03 22:15 21.08664 -70.42542 37021 ft 438 kts 132°
2026-05-03 22:15 21.04659 -70.37627 37019 ft 439 kts 132°
2026-05-03 22:16 21.00641 -70.32700 37018 ft 439 kts 133°
2026-05-03 22:16 20.96634 -70.27792 37019 ft 439 kts 133°
2026-05-03 22:17 20.92605 -70.22861 37022 ft 438 kts 133°
2026-05-03 22:17 20.88587 -70.17947 37019 ft 439 kts 133°
2026-05-03 22:18 20.84552 -70.13019 37019 ft 438 kts 133°
2026-05-03 22:18 20.80540 -70.08120 37021 ft 438 kts 132°
2026-05-03 22:19 20.76533 -70.03233 37021 ft 438 kts 132°
2026-05-03 22:19 20.72525 -69.98350 37021 ft 438 kts 132°
2026-05-03 22:20 20.68520 -69.93473 37020 ft 437 kts 132°
2026-05-03 22:20 20.64492 -69.88573 37018 ft 437 kts 132°
2026-05-03 22:21 20.60476 -69.83693 37020 ft 437 kts 132°
2026-05-03 22:21 20.56446 -69.78802 37019 ft 437 kts 132°
2026-05-03 22:22 20.52447 -69.73952 37022 ft 436 kts 132°
2026-05-03 22:22 20.48447 -69.69102 37020 ft 435 kts 131°
2026-05-03 22:23 20.44454 -69.64262 37021 ft 435 kts 131°
2026-05-03 22:23 20.40449 -69.59415 37019 ft 435 kts 131°
2026-05-03 22:24 20.36453 -69.54583 37019 ft 435 kts 132°
2026-05-03 22:24 20.32449 -69.49746 37019 ft 434 kts 131°
2026-05-03 22:25 20.28453 -69.44924 37021 ft 434 kts 131°
2026-05-03 22:25 20.24472 -69.40121 37020 ft 434 kts 131°
2026-05-03 22:26 20.20476 -69.35305 37022 ft 434 kts 131°
2026-05-03 22:26 20.16459 -69.30468 37021 ft 434 kts 132°
2026-05-03 22:27 20.12469 -69.25668 37022 ft 434 kts 132°
2026-05-03 22:27 20.08479 -69.20872 37023 ft 433 kts 132°
2026-05-03 22:28 20.04472 -69.16059 37024 ft 434 kts 131°
2026-05-03 22:28 20.00483 -69.11270 37026 ft 433 kts 132°
2026-05-03 22:29 19.96500 -69.06492 37023 ft 432 kts 132°
2026-05-03 22:29 19.92508 -69.01704 37027 ft 433 kts 132°
2026-05-03 22:30 19.88483 -68.96886 37027 ft 433 kts 132°
2026-05-03 22:30 19.84574 -68.92000 37027 ft 434 kts 129°
2026-05-03 22:31 19.80761 -68.87019 37025 ft 435 kts 129°
2026-05-03 22:31 19.76943 -68.82028 37027 ft 435 kts 129°
2026-05-03 22:32 19.73088 -68.76994 36704 ft 450 kts 129°
2026-05-03 22:32 19.71110 -68.74415 36417 ft 453 kts 129°
2026-05-03 22:32 19.69122 -68.71824 36133 ft 451 kts 129°
2026-05-03 22:32 19.67164 -68.69273 35852 ft 448 kts 129°
2026-05-03 22:33 19.65191 -68.66702 35571 ft 446 kts 129°
2026-05-03 22:33 19.63225 -68.64146 35289 ft 446 kts 129°
2026-05-03 22:33 19.61275 -68.61609 35008 ft 445 kts 129°
2026-05-03 22:33 19.59275 -68.59136 34729 ft 444 kts 133°
2026-05-03 22:34 19.57136 -68.56781 34450 ft 443 kts 134°
2026-05-03 22:34 19.54958 -68.54452 34170 ft 444 kts 135°
2026-05-03 22:34 19.52807 -68.52150 33895 ft 443 kts 135°
2026-05-03 22:34 19.50641 -68.49822 33618 ft 443 kts 135°
2026-05-03 22:35 19.48494 -68.47502 33343 ft 442 kts 134°
2026-05-03 22:35 19.46321 -68.45146 33063 ft 441 kts 134°
2026-05-03 22:35 19.44175 -68.42815 32787 ft 440 kts 134°
2026-05-03 22:35 19.42070 -68.40527 32540 ft 440 kts 134°
2026-05-03 22:36 19.39923 -68.38192 32292 ft 439 kts 134°
2026-05-03 22:36 19.37783 -68.35867 32045 ft 439 kts 134°
2026-05-03 22:36 19.35656 -68.33554 31797 ft 439 kts 135°
2026-05-03 22:36 19.33533 -68.31248 31551 ft 439 kts 134°
2026-05-03 22:37 19.31393 -68.28924 31303 ft 439 kts 134°
2026-05-03 22:37 19.29277 -68.26626 31058 ft 439 kts 134°
2026-05-03 22:37 19.27130 -68.24294 30807 ft 439 kts 134°
2026-05-03 22:37 19.25008 -68.21991 30559 ft 436 kts 134°
2026-05-03 22:38 19.22881 -68.19683 30308 ft 434 kts 134°
2026-05-03 22:38 19.20786 -68.17410 30062 ft 431 kts 134°
2026-05-03 22:38 19.18691 -68.15140 29814 ft 429 kts 134°
2026-05-03 22:38 19.16624 -68.12899 29566 ft 427 kts 134°
2026-05-03 22:39 19.14572 -68.10677 29319 ft 425 kts 134°
2026-05-03 22:39 19.12484 -68.08416 29068 ft 422 kts 135°
2026-05-03 22:39 19.10459 -68.06224 28822 ft 420 kts 135°
2026-05-03 22:39 19.08426 -68.04025 28564 ft 418 kts 134°
2026-05-03 22:40 19.06397 -68.01830 28307 ft 417 kts 135°
2026-05-03 22:40 19.04380 -67.99650 28056 ft 415 kts 134°
2026-05-03 22:40 19.02336 -67.97441 27797 ft 414 kts 135°
2026-05-03 22:40 19.00340 -67.95286 27543 ft 412 kts 134°
2026-05-03 22:41 18.98353 -67.93142 27292 ft 409 kts 134°
2026-05-03 22:41 18.96349 -67.90979 27037 ft 407 kts 134°
2026-05-03 22:41 18.94383 -67.88858 26784 ft 405 kts 134°
2026-05-03 22:41 18.92418 -67.86738 26530 ft 403 kts 134°
2026-05-03 22:42 18.90455 -67.84620 26277 ft 402 kts 134°
2026-05-03 22:42 18.88502 -67.82515 26025 ft 400 kts 134°
2026-05-03 22:42 18.86551 -67.80411 25772 ft 399 kts 134°
2026-05-03 22:42 18.84609 -67.78318 25518 ft 398 kts 134°
2026-05-03 22:43 18.82686 -67.76247 25268 ft 397 kts 134°
2026-05-03 22:43 18.80745 -67.74157 25014 ft 395 kts 134°
2026-05-03 22:43 18.78821 -67.72089 24760 ft 394 kts 134°
2026-05-03 22:43 18.76908 -67.70031 24505 ft 392 kts 133°
2026-05-03 22:44 18.75010 -67.67989 24247 ft 390 kts 133°
2026-05-03 22:44 18.73118 -67.65955 23923 ft 389 kts 133°
2026-05-03 22:44 18.71214 -67.63908 23530 ft 387 kts 133°
2026-05-03 22:44 18.69333 -67.61887 23115 ft 384 kts 133°
2026-05-03 22:45 18.67470 -67.59887 22691 ft 381 kts 133°
2026-05-03 22:45 18.65639 -67.57922 22309 ft 377 kts 133°
2026-05-03 22:45 18.63816 -67.55964 21973 ft 373 kts 133°
2026-05-03 22:45 18.61996 -67.54007 21579 ft 371 kts 134°
2026-05-03 22:46 18.60186 -67.52062 21152 ft 370 kts 134°
2026-05-03 22:46 18.58391 -67.50134 20711 ft 369 kts 134°
2026-05-03 22:46 18.56595 -67.48208 20210 ft 371 kts 135°
2026-05-03 22:46 18.54785 -67.46268 19702 ft 373 kts 135°
2026-05-03 22:47 18.52967 -67.44321 19255 ft 372 kts 135°
2026-05-03 22:47 18.51159 -67.42385 18846 ft 370 kts 135°
2026-05-03 22:47 18.49358 -67.40459 18437 ft 368 kts 135°
2026-05-03 22:47 18.47557 -67.38532 18033 ft 366 kts 136°
2026-05-03 22:48 18.45765 -67.36614 17619 ft 365 kts 136°
2026-05-03 22:48 18.43986 -67.34712 17200 ft 364 kts 136°
2026-05-03 22:48 18.42223 -67.32829 16781 ft 362 kts 136°
2026-05-03 22:48 18.40465 -67.30956 16358 ft 360 kts 136°
2026-05-03 22:49 18.38692 -67.29063 15937 ft 358 kts 136°
2026-05-03 22:49 18.36951 -67.27203 15523 ft 356 kts 135°
2026-05-03 22:49 18.35234 -67.25369 15107 ft 354 kts 135°
2026-05-03 22:49 18.33495 -67.23511 14696 ft 352 kts 135°
2026-05-03 22:50 18.31773 -67.21673 14285 ft 350 kts 135°
2026-05-03 22:50 18.30082 -67.19868 13872 ft 348 kts 134°
2026-05-03 22:50 18.28376 -67.18050 13477 ft 345 kts 134°
2026-05-03 22:50 18.26701 -67.16265 13115 ft 341 kts 134°
2026-05-03 22:51 18.24986 -67.14592 13005 ft 330 kts 139°
2026-05-03 22:51 18.23236 -67.13089 13004 ft 315 kts 140°
2026-05-03 22:51 18.21563 -67.11677 12839 ft 308 kts 140°
2026-05-03 22:51 18.19878 -67.10258 12417 ft 309 kts 140°
2026-05-03 22:52 18.18210 -67.08852 12022 ft 309 kts 140°
2026-05-03 22:52 18.16525 -67.07433 11640 ft 308 kts 140°
2026-05-03 22:52 18.14863 -67.06029 11265 ft 307 kts 140°
2026-05-03 22:52 18.13202 -67.04630 10896 ft 306 kts 140°
2026-05-03 22:53 18.11539 -67.03225 10520 ft 305 kts 140°
2026-05-03 22:53 18.09881 -67.01826 10147 ft 303 kts 140°
2026-05-03 22:53 18.08225 -67.00429 9773 ft 302 kts 140°
2026-05-03 22:53 18.06591 -66.99049 9398 ft 301 kts 140°
2026-05-03 22:54 18.04967 -66.97680 9025 ft 300 kts 140°
2026-05-03 22:54 18.03340 -66.96310 8656 ft 298 kts 140°
2026-05-03 22:54 18.01722 -66.94946 8290 ft 297 kts 140°
2026-05-03 22:54 18.00133 -66.93607 7932 ft 295 kts 139°
2026-05-03 22:55 17.98519 -66.92248 7577 ft 293 kts 139°
2026-05-03 22:55 17.96944 -66.90923 7231 ft 291 kts 139°
2026-05-03 22:55 17.95345 -66.89574 6871 ft 290 kts 139°
2026-05-03 22:55 17.93773 -66.88251 6515 ft 288 kts 139°
2026-05-03 22:56 17.92256 -66.86890 6166 ft 285 kts 130°
2026-05-03 22:56 17.91427 -66.85095 5992 ft 273 kts 98°
2026-05-03 22:56 17.91678 -66.83145 5715 ft 272 kts 65°
2026-05-03 22:56 17.92861 -66.81615 5445 ft 272 kts 45°
2026-05-03 22:57 17.94272 -66.80308 5197 ft 268 kts 45°
2026-05-03 22:57 17.95618 -66.78967 4948 ft 263 kts 48°
2026-05-03 22:57 17.96829 -66.77580 4641 ft 254 kts 56°
2026-05-03 22:57 17.97738 -66.76043 4218 ft 243 kts 64°
2026-05-03 22:58 17.98509 -66.74500 3819 ft 233 kts 65°
2026-05-03 22:58 17.99216 -66.73047 3334 ft 217 kts 65°
2026-05-03 22:58 17.99878 -66.71682 3049 ft 199 kts 65°
2026-05-03 22:58 18.00488 -66.70430 2878 ft 187 kts 66°
2026-05-03 22:59 18.01068 -66.69235 2614 ft 179 kts 66°
2026-05-03 22:59 18.01615 -66.68101 2349 ft 170 kts 68°
2026-05-03 22:59 18.01792 -66.66945 2062 ft 155 kts 94°
2026-05-03 22:59 18.01724 -66.65860 1820 ft 143 kts 94°
2026-05-03 23:00 18.01677 -66.64854 1587 ft 132 kts 90°
2026-05-03 23:00 18.01857 -66.63936 1346 ft 124 kts 77°
2026-05-03 23:00 18.02061 -66.63073 1170 ft 121 kts 84°
2026-05-03 23:00 18.02167 -66.62183 1050 ft 122 kts 87°
2026-05-03 23:01 18.02207 -66.61293 936 ft 122 kts 95°
2026-05-03 23:01 18.02102 -66.60416 743 ft 121 kts 104°
2026-05-03 23:01 18.01863 -66.59566 570 ft 121 kts 110°
2026-05-03 23:01 18.01591 -66.58737 397 ft 121 kts 111°
2026-05-03 23:02 18.01325 -66.57890 222 ft 120 kts 110°
2026-05-03 23:02 18.01068 -66.57062 69 ft 119 kts 111°
2026-05-03 23:02 18.00828 -66.56300 43 ft 89 kts 107°
2026-05-03 23:02 18.00695 -66.55860 43 ft 39 kts 109°
2026-05-03 23:03 18.00613 -66.55604 42 ft 34 kts 108°
2026-05-03 23:03 18.00575 -66.55462 41 ft 11 kts 98°
2026-05-03 23:03 18.00636 -66.55421 41 ft 12 kts
2026-05-03 23:03 18.00690 -66.55470 41 ft 4 kts 269°
2026-05-03 23:04 18.00700 -66.55509 41 ft 8 kts 288°
2026-05-03 23:04 18.00731 -66.55613 42 ft 17 kts 286°
2026-05-03 23:04 18.00767 -66.55733 43 ft 17 kts 287°
2026-05-03 23:04 18.00804 -66.55854 44 ft 17 kts 289°
2026-05-03 23:05 18.00845 -66.55975 44 ft 17 kts 289°
2026-05-03 23:05 18.00889 -66.56097 44 ft 18 kts 287°
2026-05-03 23:05 18.00915 -66.56181 44 ft 11 kts 288°
2026-05-03 23:05 18.00940 -66.56241 44 ft 8 kts 331°
2026-05-03 23:06 18.00998 -66.56231 44 ft 8 kts 15°
2026-05-03 23:06 18.01049 -66.56232 44 ft 5 kts 324°
2026-05-03 23:06 18.01073 -66.56255 44 ft 0 kts 318°
2026-05-03 23:06 18.01080 -66.56261 44 ft 1 kts 318°
2026-05-03 23:07 18.01081 -66.56262 44 ft 0 kts 317°
2026-05-03 23:07 18.01082 -66.56262 44 ft 0 kts 318°
2026-05-03 23:07 18.01080 -66.56261 44 ft 1 kts 318°
2026-05-03 23:07 18.01079 -66.56260 44 ft 0 kts 318°
2026-05-03 23:08 18.01078 -66.56258 44 ft 0 kts 318°